Skip Page Navigation
NASA JPL Caltech
NASA Logo - Jet Propulsion Laboratory + View the NASA Portal
+ Center for Near-Earth Object Studies
JPL Home Earth Solar System Stars & Galaxies Technology
JPL Solar System Dynamics
BODIES ORBITS EPHEMERIDES TOOLS PHYSICAL DATA DISCOVERY FAQ SITE MAP
IMPORTANT: The SSD Announcement email list is now available. Major changes are coming in the near future, including possible hostname and/or URL changes. To be notified of such changes, subscribe to this email list.

Please visit this page for more details.


JPL Small-Body Database Browser
Search: [ help ]  
324508 (2006 VN29)
Classification: Main-belt Asteroid          SPK-ID: 2324508
Ephemeris | Orbit Diagram | Orbital Elements | Mission Design | Physical Parameters | Discovery Circumstances ]

[ show orbit diagram ]
Orbital Elements at Epoch 2458600.5 (2019-Apr-27.0) TDB
Reference: JPL 10 (heliocentric ecliptic J2000)
 Element Value Uncertainty (1-sigma)   Units 
e .1448627635698958 5.3963e-08  
a 2.638741059978073 2.9747e-08 au
q 2.256485737684293 1.4385e-07 au
i 10.78321134497682 6.529e-06 deg
node 50.60535003877298 4.835e-05 deg
peri 49.44299180349182 6.0423e-05 deg
M 297.998088842835 3.6484e-05 deg
tp 2458870.147355229317
(2020-Jan-21.64735523)
0.00016046 TDB
period 1565.64605946564
4.29
2.6475e-05
7.248e-08
d
yr
n .2299370268417302 3.8882e-09 deg/d
Q 3.020996382271853 3.4056e-08 au
  Orbit Determination Parameters
   # obs. used (total)      146  
   data-arc span      4332 days (11.86 yr)  
   first obs. used      2006-09-27  
   last obs. used      2018-08-07  
   planetary ephem.      DE431  
   SB-pert. ephem.      SB431-N16  
   condition code      0  
   norm. resid. RMS      .71933  
   source      ORB  
   producer      Otto Matic  
   solution date      2019-Jul-14 08:31:33  

Additional Information
 Earth MOID = 1.28923 au 
 Jupiter MOID = 2.2286 au 
 T_jup = 3.356 
[ show covariance matrix ]

Ephemeris | Orbit Diagram | Orbital Elements | Mission Design | Physical Parameters | Discovery Circumstances ]

Physical Parameter Table
Parameter Symbol Value Units Sigma Reference Notes
absolute magnitude H 16.7   n/a MPO455392  

324508 (2006 VN29)          Discovered 2006-Nov-10 by Spacewatch at Kitt Peak
Reference: 20120406/Numbers.arcLast Updated: 2012-04-09
Ephemeris | Orbit Diagram | Orbital Elements | Mission Design | Physical Parameters | Discovery Circumstances ]
ABOUT SSD CREDITS/AWARDS PRIVACY/COPYRIGHT GLOSSARY LINKS
FirstGov
(server date/time)  
NASA Home Page
Site Manager:   Ryan S. Park
Webmaster  Alan B. Chamberlin